Location: P�rn�nmaa
(61.1833°N, 23.0000°E)
Time: 18:27:20
(UTC+00:00)

CORIOLIS - Pass Details

Date: 08 December 2019
Orbit: 818 x 839 km, 98.7° (Epoch: 16 January)

Event Time Altitude Azimuth Distance (km) Brightness Sun altitude
Rises 14:56:06 0° 145° (SE) 3,389 7.3 -10.4°
Reaches altitude 10° 14:58:29 10° 142° (SE) 2,458 6.5 -10.6°
Maximum altitude 15:03:51 62° 63° (ENE) 946 4.2 -11.2°
Drops below altitude 10° 15:09:15 10° 344° (NNW) 2,468 6.5 -11.8°
Sets 15:11:38 0° 342° (NNW) 3,404 7.3 -12.0°
